NKS1638 KLAS-KRNO

Flight info

Callsign NKS1638
Flight time 0h 55m
Altitude 36000
Route JOHKR5 KENNO SCOLA1
Aircraft A320/M-SDE3FGHIRWY/LB1

Departure

Time 2026-05-07 17:39
Airport Harry Reid International Airport (KLAS)

Arrival

Time 2026-05-07 18:34
Airport Reno Tahoe International Airport (KRNO)
Time Latitude Longitude Altitude Speed Heading
2026-05-07 16:32 36.08481 -115.15448 2098 ft 0 kts 11°
2026-05-07 17:12 36.08480 -115.15448 2097 ft 0 kts 11°
2026-05-07 17:27 36.08476 -115.15449 2097 ft 3 kts 11°
2026-05-07 17:27 36.08450 -115.15455 2098 ft 2 kts 11°
2026-05-07 17:27 36.08429 -115.15459 2098 ft 4 kts 352°
2026-05-07 17:28 36.08403 -115.15449 2097 ft 4 kts 330°
2026-05-07 17:28 36.08384 -115.15435 2097 ft 4 kts 326°
2026-05-07 17:28 36.08374 -115.15426 2097 ft 0 kts 326°
2026-05-07 17:31 36.08375 -115.15428 2097 ft 1 kts 323°
2026-05-07 17:31 36.08378 -115.15442 2097 ft 3 kts 274°
2026-05-07 17:32 36.08366 -115.15473 2098 ft 5 kts 241°
2026-05-07 17:32 36.08351 -115.15512 2098 ft 5 kts 244°
2026-05-07 17:32 36.08332 -115.15557 2099 ft 6 kts 237°
2026-05-07 17:32 36.08278 -115.15566 2099 ft 11 kts 159°
2026-05-07 17:33 36.08202 -115.15522 2099 ft 14 kts 154°
2026-05-07 17:33 36.08108 -115.15466 2098 ft 16 kts 154°
2026-05-07 17:33 36.07998 -115.15401 2098 ft 19 kts 155°
2026-05-07 17:33 36.07875 -115.15332 2099 ft 20 kts 155°
2026-05-07 17:34 36.07805 -115.15216 2101 ft 18 kts 91°
2026-05-07 17:34 36.07801 -115.15047 2100 ft 21 kts 95°
2026-05-07 17:34 36.07788 -115.14863 2099 ft 22 kts 95°
2026-05-07 17:34 36.07774 -115.14664 2098 ft 24 kts 95°
2026-05-07 17:35 36.07760 -115.14449 2097 ft 26 kts 94°
2026-05-07 17:35 36.07754 -115.14246 2095 ft 23 kts 91°
2026-05-07 17:35 36.07755 -115.14042 2094 ft 25 kts 90°
2026-05-07 17:35 36.07754 -115.13822 2093 ft 27 kts 90°
2026-05-07 17:36 36.07755 -115.13585 2092 ft 28 kts 90°
2026-05-07 17:36 36.07755 -115.13330 2089 ft 31 kts 90°
2026-05-07 17:36 36.07755 -115.13104 2082 ft 9 kts 89°
2026-05-07 17:36 36.07756 -115.13013 2078 ft 14 kts 90°
2026-05-07 17:37 36.07755 -115.12867 2072 ft 20 kts 89°
2026-05-07 17:37 36.07754 -115.12672 2064 ft 25 kts 90°
2026-05-07 17:37 36.07756 -115.12447 2057 ft 24 kts 90°
2026-05-07 17:37 36.07754 -115.12277 2052 ft 12 kts 94°
2026-05-07 17:38 36.07696 -115.12231 2050 ft 13 kts 187°
2026-05-07 17:38 36.07642 -115.12303 2052 ft 13 kts 269°
2026-05-07 17:38 36.07643 -115.12413 2055 ft 13 kts 270°
2026-05-07 17:38 36.07642 -115.12627 2064 ft 53 kts 270°
2026-05-07 17:39 36.07641 -115.13349 2087 ft 112 kts 270°
2026-05-07 17:39 36.07640 -115.14527 2099 ft 160 kts 270°
2026-05-07 17:39 36.07634 -115.16023 2406 ft 178 kts 270°
2026-05-07 17:39 36.07632 -115.17560 3105 ft 180 kts 270°
2026-05-07 17:40 36.07617 -115.19159 3497 ft 195 kts 271°
2026-05-07 17:40 36.07589 -115.20917 3795 ft 215 kts 266°
2026-05-07 17:40 36.07347 -115.22838 4084 ft 239 kts 260°
2026-05-07 17:40 36.06984 -115.24923 4625 ft 254 kts 249°
2026-05-07 17:41 36.05917 -115.26683 5305 ft 268 kts 217°
2026-05-07 17:41 36.04232 -115.27801 5938 ft 281 kts 201°
2026-05-07 17:41 36.02370 -115.28566 6787 ft 285 kts 196°
2026-05-07 17:41 36.00449 -115.29241 7666 ft 289 kts 196°
2026-05-07 17:42 35.98538 -115.30050 8504 ft 293 kts 204°
2026-05-07 17:42 35.96668 -115.31096 9380 ft 297 kts 206°
2026-05-07 17:42 35.94809 -115.32240 10177 ft 301 kts 208°
2026-05-07 17:42 35.92941 -115.33448 10927 ft 305 kts 208°
2026-05-07 17:43 35.91116 -115.34817 11663 ft 310 kts 220°
2026-05-07 17:43 35.89669 -115.36798 12377 ft 314 kts 239°
2026-05-07 17:43 35.88792 -115.39262 13084 ft 317 kts 258°
2026-05-07 17:43 35.88572 -115.41961 13784 ft 319 kts 274°
2026-05-07 17:44 35.88635 -115.44713 14432 ft 323 kts 274°
2026-05-07 17:44 35.88698 -115.47496 15106 ft 326 kts 274°
2026-05-07 17:44 35.88758 -115.50300 15801 ft 329 kts 274°
2026-05-07 17:44 35.88813 -115.53130 16498 ft 331 kts 274°
2026-05-07 17:45 35.88867 -115.55985 17177 ft 334 kts 274°
2026-05-07 17:45 35.88925 -115.58879 17420 ft 352 kts 274°
2026-05-07 17:45 35.88991 -115.62025 17550 ft 372 kts 274°
2026-05-07 17:45 35.89053 -115.65217 17912 ft 382 kts 274°
2026-05-07 17:46 35.89112 -115.68513 18470 ft 387 kts 274°
2026-05-07 17:46 35.89168 -115.71845 19039 ft 390 kts 274°
2026-05-07 17:46 35.89226 -115.75205 19625 ft 394 kts 274°
2026-05-07 17:46 35.89285 -115.78590 20202 ft 397 kts 274°
2026-05-07 17:47 35.89343 -115.82004 20788 ft 400 kts 274°
2026-05-07 17:47 35.89403 -115.85451 21356 ft 403 kts 274°
2026-05-07 17:47 35.89527 -115.88909 21914 ft 404 kts 280°
2026-05-07 17:47 35.90148 -115.92276 22460 ft 403 kts 292°
2026-05-07 17:48 35.91333 -115.95399 22991 ft 402 kts 304°
2026-05-07 17:48 35.93022 -115.98135 23511 ft 401 kts 316°
2026-05-07 17:48 35.94996 -116.00572 23983 ft 403 kts 317°
2026-05-07 17:48 35.96988 -116.03021 24407 ft 405 kts 317°
2026-05-07 17:49 35.98987 -116.05488 24851 ft 408 kts 317°
2026-05-07 17:49 36.01000 -116.07974 25297 ft 410 kts 317°
2026-05-07 17:49 36.03021 -116.10469 25745 ft 413 kts 317°
2026-05-07 17:49 36.05054 -116.12982 26175 ft 415 kts 317°
2026-05-07 17:50 36.07100 -116.15511 26580 ft 417 kts 317°
2026-05-07 17:50 36.09155 -116.18054 26973 ft 419 kts 317°
2026-05-07 17:50 36.11217 -116.20614 27373 ft 422 kts 317°
2026-05-07 17:50 36.13292 -116.23193 27765 ft 424 kts 317°
2026-05-07 17:51 36.15374 -116.25783 28145 ft 426 kts 317°
2026-05-07 17:51 36.17472 -116.28394 28512 ft 429 kts 317°
2026-05-07 17:51 36.19578 -116.31017 28902 ft 431 kts 317°
2026-05-07 17:51 36.21696 -116.33658 29268 ft 433 kts 317°
2026-05-07 17:52 36.23826 -116.36313 29659 ft 436 kts 317°
2026-05-07 17:52 36.25967 -116.38981 30031 ft 438 kts 317°
2026-05-07 17:52 36.28123 -116.41669 30345 ft 440 kts 317°
2026-05-07 17:52 36.30300 -116.44346 30641 ft 442 kts 318°
2026-05-07 17:53 36.32514 -116.46998 30931 ft 444 kts 319°
2026-05-07 17:53 36.34760 -116.49644 31222 ft 446 kts 319°
2026-05-07 17:53 36.37011 -116.52283 31626 ft 445 kts 319°
2026-05-07 17:53 36.39225 -116.54884 32058 ft 444 kts 319°
2026-05-07 17:54 36.41456 -116.57523 32477 ft 443 kts 319°
2026-05-07 17:54 36.43678 -116.60167 32906 ft 442 kts 319°
2026-05-07 17:54 36.45901 -116.62803 33335 ft 441 kts 319°
2026-05-07 17:54 36.48147 -116.65396 33778 ft 440 kts 320°
2026-05-07 17:55 36.50407 -116.67960 34202 ft 439 kts 320°
2026-05-07 17:55 36.52667 -116.70503 34588 ft 438 kts 320°
2026-05-07 17:55 36.54922 -116.73044 34950 ft 438 kts 320°
2026-05-07 17:55 36.57177 -116.75588 35287 ft 437 kts 320°
2026-05-07 17:56 36.59427 -116.78137 35632 ft 437 kts 320°
2026-05-07 17:56 36.61670 -116.80689 35929 ft 438 kts 320°
2026-05-07 17:56 36.66153 -116.85814 36011 ft 437 kts 320°
2026-05-07 17:57 36.69904 -116.90109 36019 ft 437 kts 320°
2026-05-07 17:57 36.75408 -116.95557 36018 ft 432 kts 333°
2026-05-07 17:58 36.80742 -116.99009 36015 ft 432 kts 335°
2026-05-07 17:58 36.86084 -117.02460 36026 ft 433 kts 335°
2026-05-07 17:59 36.91433 -117.05928 36039 ft 433 kts 334°
2026-05-07 17:59 36.96783 -117.09411 36051 ft 433 kts 334°
2026-05-07 18:00 37.02126 -117.12908 36059 ft 434 kts 334°
2026-05-07 18:00 37.07474 -117.16394 36068 ft 434 kts 334°
2026-05-07 18:01 37.12832 -117.19881 36067 ft 434 kts 334°
2026-05-07 18:01 37.18186 -117.23379 36069 ft 434 kts 334°
2026-05-07 18:02 37.26202 -117.28648 36077 ft 434 kts 334°
2026-05-07 18:03 37.31329 -117.32632 36080 ft 436 kts 322°
2026-05-07 18:03 37.35965 -117.37573 36076 ft 437 kts 322°
2026-05-07 18:04 37.40592 -117.42525 36078 ft 437 kts 321°
2026-05-07 18:04 37.45221 -117.47486 36067 ft 437 kts 321°
2026-05-07 18:05 37.49862 -117.52325 36067 ft 435 kts 327°
2026-05-07 18:05 37.54977 -117.56396 36071 ft 435 kts 329°
2026-05-07 18:06 37.60099 -117.60438 36067 ft 435 kts 329°
2026-05-07 18:06 37.65224 -117.64494 36065 ft 434 kts 329°
2026-05-07 18:07 37.70334 -117.68550 36063 ft 434 kts 329°
2026-05-07 18:07 37.75454 -117.72626 36059 ft 434 kts 329°
2026-05-07 18:08 37.80571 -117.76695 36061 ft 435 kts 329°
2026-05-07 18:08 37.85687 -117.80767 36067 ft 435 kts 329°
2026-05-07 18:09 37.90803 -117.84858 36075 ft 435 kts 329°
2026-05-07 18:09 37.95912 -117.88950 36076 ft 434 kts 329°
2026-05-07 18:10 38.01020 -117.93039 36076 ft 434 kts 329°
2026-05-07 18:10 38.06117 -117.97133 36075 ft 434 kts 329°
2026-05-07 18:11 38.11212 -118.01237 36082 ft 433 kts 329°
2026-05-07 18:11 38.16298 -118.05342 36081 ft 433 kts 329°
2026-05-07 18:12 38.21380 -118.09439 36068 ft 433 kts 329°
2026-05-07 18:12 38.26466 -118.13546 36071 ft 433 kts 329°
2026-05-07 18:13 38.31545 -118.17659 36075 ft 433 kts 328°
2026-05-07 18:13 38.36622 -118.21780 36068 ft 432 kts 328°
2026-05-07 18:14 38.40824 -118.25225 36091 ft 433 kts 325°
2026-05-07 18:14 38.45363 -118.30420 35624 ft 446 kts 317°
2026-05-07 18:14 38.47600 -118.33184 34815 ft 448 kts 317°
2026-05-07 18:15 38.49832 -118.35949 34206 ft 445 kts 317°
2026-05-07 18:15 38.52043 -118.38687 33552 ft 442 kts 317°
2026-05-07 18:15 38.54261 -118.41429 32863 ft 442 kts 317°
2026-05-07 18:15 38.56452 -118.44139 32370 ft 436 kts 317°
2026-05-07 18:16 38.58618 -118.46820 31851 ft 432 kts 317°
2026-05-07 18:16 38.60762 -118.49475 31329 ft 428 kts 317°
2026-05-07 18:16 38.62890 -118.52110 30805 ft 424 kts 317°
2026-05-07 18:16 38.64998 -118.54724 30284 ft 420 kts 317°
2026-05-07 18:17 38.67081 -118.57316 29712 ft 416 kts 317°
2026-05-07 18:17 38.69140 -118.59882 29083 ft 411 kts 317°
2026-05-07 18:17 38.71174 -118.62413 28586 ft 406 kts 317°
2026-05-07 18:17 38.73190 -118.64923 28088 ft 402 kts 317°
2026-05-07 18:18 38.75181 -118.67405 27591 ft 398 kts 317°
2026-05-07 18:18 38.77158 -118.69868 27102 ft 395 kts 317°
2026-05-07 18:18 38.79124 -118.72315 26611 ft 393 kts 317°
2026-05-07 18:18 38.81081 -118.74748 26120 ft 391 kts 317°
2026-05-07 18:19 38.83028 -118.77167 25637 ft 389 kts 317°
2026-05-07 18:19 38.84970 -118.79581 25156 ft 388 kts 316°
2026-05-07 18:19 38.86880 -118.81960 24674 ft 388 kts 317°
2026-05-07 18:19 38.88815 -118.84376 24190 ft 387 kts 316°
2026-05-07 18:20 38.90743 -118.86788 23709 ft 387 kts 316°
2026-05-07 18:20 38.92671 -118.89199 23165 ft 387 kts 316°
2026-05-07 18:20 38.94593 -118.91606 22686 ft 384 kts 316°
2026-05-07 18:20 38.96499 -118.93998 22207 ft 382 kts 316°
2026-05-07 18:21 38.98393 -118.96378 21725 ft 380 kts 316°
2026-05-07 18:21 39.00273 -118.98746 21262 ft 377 kts 316°
2026-05-07 18:21 39.02140 -119.01093 20791 ft 374 kts 316°
2026-05-07 18:21 39.03994 -119.03420 20329 ft 371 kts 316°
2026-05-07 18:22 39.05829 -119.05725 19869 ft 368 kts 315°
2026-05-07 18:22 39.07066 -119.07278 19563 ft 366 kts 315°
2026-05-07 18:22 39.09465 -119.10294 18953 ft 361 kts 315°
2026-05-07 18:22 39.11251 -119.12546 18512 ft 358 kts 315°
2026-05-07 18:23 39.13016 -119.14778 18127 ft 352 kts 315°
2026-05-07 18:23 39.14734 -119.16952 18039 ft 341 kts 315°
2026-05-07 18:23 39.16428 -119.19091 17985 ft 341 kts 315°
2026-05-07 18:23 39.18111 -119.21214 17240 ft 337 kts 315°
2026-05-07 18:24 39.19781 -119.23322 16423 ft 334 kts 314°
2026-05-07 18:24 39.21437 -119.25417 15820 ft 333 kts 314°
2026-05-07 18:24 39.23094 -119.27508 15334 ft 332 kts 314°
2026-05-07 18:24 39.24737 -119.29580 14924 ft 329 kts 314°
2026-05-07 18:25 39.26366 -119.31637 14522 ft 326 kts 314°
2026-05-07 18:25 39.27978 -119.33681 14124 ft 324 kts 314°
2026-05-07 18:25 39.29579 -119.35716 13709 ft 322 kts 314°
2026-05-07 18:25 39.31171 -119.37742 13301 ft 320 kts 314°
2026-05-07 18:26 39.32744 -119.39740 13070 ft 312 kts 314°
2026-05-07 18:26 39.34265 -119.41666 12930 ft 301 kts 314°
2026-05-07 18:26 39.35817 -119.43447 12670 ft 297 kts 321°
2026-05-07 18:26 39.37494 -119.45017 12195 ft 299 kts 322°
2026-05-07 18:27 39.39173 -119.46580 11893 ft 295 kts 322°
2026-05-07 18:27 39.40832 -119.48121 11400 ft 292 kts 322°
2026-05-07 18:27 39.42480 -119.49654 10790 ft 291 kts 321°
2026-05-07 18:27 39.44116 -119.51180 10388 ft 287 kts 321°
2026-05-07 18:28 39.45710 -119.52671 10265 ft 279 kts 321°
2026-05-07 18:28 39.47260 -119.54122 10138 ft 271 kts 321°
2026-05-07 18:28 39.48747 -119.55509 10029 ft 263 kts 321°
2026-05-07 18:28 39.50215 -119.56880 9811 ft 259 kts 321°
2026-05-07 18:29 39.51682 -119.58257 9451 ft 261 kts 322°
2026-05-07 18:29 39.53147 -119.59634 9107 ft 258 kts 322°
2026-05-07 18:29 39.54571 -119.60974 8784 ft 248 kts 322°
2026-05-07 18:29 39.55941 -119.62262 8470 ft 238 kts 322°
2026-05-07 18:30 39.57259 -119.63502 8172 ft 230 kts 322°
2026-05-07 18:30 39.58511 -119.64679 7895 ft 216 kts 322°
2026-05-07 18:30 39.59672 -119.65819 7652 ft 202 kts 315°
2026-05-07 18:30 39.60530 -119.67187 7359 ft 189 kts 299°
2026-05-07 18:31 39.61026 -119.68691 7125 ft 173 kts 284°
2026-05-07 18:31 39.61208 -119.70218 6919 ft 174 kts 271°
2026-05-07 18:31 39.61091 -119.71776 6697 ft 174 kts 257°
2026-05-07 18:31 39.60683 -119.73252 6464 ft 173 kts 243°
2026-05-07 18:32 39.60005 -119.74547 6234 ft 175 kts 230°
2026-05-07 18:32 39.59111 -119.75571 6015 ft 167 kts 216°
2026-05-07 18:32 39.58109 -119.76245 5785 ft 159 kts 202°
2026-05-07 18:32 39.57052 -119.76588 5587 ft 156 kts 190°
2026-05-07 18:33 39.55977 -119.76666 5373 ft 154 kts 181°
2026-05-07 18:33 39.54910 -119.76667 5158 ft 153 kts 180°
2026-05-07 18:33 39.53846 -119.76660 4976 ft 153 kts 180°
2026-05-07 18:33 39.52786 -119.76669 4818 ft 153 kts 181°
2026-05-07 18:34 39.51723 -119.76672 4620 ft 152 kts 181°
2026-05-07 18:34 39.50700 -119.76677 4519 ft 130 kts 179°
2026-05-07 18:34 39.50072 -119.76679 4514 ft 67 kts 180°
2026-05-07 18:34 39.49660 -119.76681 4519 ft 38 kts 181°
2026-05-07 18:35 39.49487 -119.76765 4518 ft 24 kts 210°
2026-05-07 18:35 39.49354 -119.76868 4517 ft 18 kts 218°
2026-05-07 18:35 39.49285 -119.76992 4516 ft 16 kts 238°
2026-05-07 18:35 39.49257 -119.77120 4516 ft 15 kts 296°
2026-05-07 18:36 39.49358 -119.77155 4516 ft 17 kts 359°
2026-05-07 18:36 39.49483 -119.77151 4516 ft 19 kts 360°
2026-05-07 18:36 39.49621 -119.77154 4515 ft 21 kts 360°
2026-05-07 18:36 39.49769 -119.77153 4516 ft 21 kts 360°
2026-05-07 18:37 39.49919 -119.77152 4519 ft 22 kts 359°
2026-05-07 18:37 39.50072 -119.77152 4519 ft 22 kts 360°
2026-05-07 18:37 39.50222 -119.77151 4519 ft 21 kts
2026-05-07 18:37 39.50369 -119.77151 4520 ft 22 kts
2026-05-07 18:38 39.50516 -119.77151 4519 ft 19 kts
2026-05-07 18:38 39.50648 -119.77151 4519 ft 18 kts
2026-05-07 18:38 39.50765 -119.77150 4519 ft 12 kts 359°
2026-05-07 18:38 39.50802 -119.77183 4519 ft 4 kts 287°
2026-05-07 18:39 39.50789 -119.77214 4519 ft 5 kts 214°
2026-05-07 18:39 39.50757 -119.77239 4519 ft 5 kts 213°
2026-05-07 18:39 39.50743 -119.77252 4520 ft 2 kts 213°
2026-05-07 18:39 39.50742 -119.77252 4519 ft 0 kts 213°